User: anonymous   Login
Location: Nachod
(50.4170°N, 16.1670°E)
Time: 15:02:59
(UTC+02:00)
Language:

ISS - Orbit

View from above orbital plane
View from above orbital plane
View from above satellite
View from above satellite

Ground track
Ground track

The orbit data is extracted from the following two-line orbital elements,

1 25544U 98067A   20296.37453139  .00000809  00000-0  22591-4 0  9994
2 25544  51.6444  79.1364 0001590  51.0061  54.4182 15.49321387251739
Epoch (UTC): 22 October 2020 08:59:19
Eccentricity: 0.0001590
inclination: 51.6444°
perigee height: 417 km
apogee height: 420 km
right ascension of ascending node: 79.1364°
argument of perigee: 51.0061°
revolutions per day: 15.49321387
mean anomaly at epoch: 54.4182°
orbit number at epoch: 25173

The dashed part of the orbit path shows where the satellite is in the earth's shadow,  

DLR